Regional Weather Roundup
Issued by NWS Albany, NY

Home | Current Version | Previous Version | Text Only | Print | Product List | Glossary On
Versions: 1 2 3 4 5 6 7 8 9 10 11 12 13 14 15 16 17 18 19 20 21 22 23 24 25 26 27
000
ASUS41 KALY 180910
RWRALY

NEW YORK STATE HOURLY WEATHER ROUNDUP
NATIONAL WEATHER SERVICE ALBANY NY
500 AM EDT FRI AUG 18 2017

NOTE: "FAIR" INDICATES FEW OR NO CLOUDS BELOW 12,000 FEET WITH NO
SIGNIFICANT WEATHER AND/OR NO OBSTRUCTIONS TO VISIBILITY.

NYZ032-033-038>043-046>054-057>066-NYZ062>081-082-084-181000-
EAST


CITY           SKY/WX    TMP DP  RH WIND       PRES   REMARKS
ALBANY         CLOUDY    72  63  73 S12G21    29.85F
GLENS FALLS    PTCLDY    62  59  90 CALM      29.84F
POUGHKEEPSIE   CLOUDY    73  68  84 SE5       29.88F
MONTGOMERY     CLOUDY    71  67  87 CALM      29.88F
WHITE PLAINS   CLOUDY    73  71  93 SE6       29.91F FOG
ISLIP          CLOUDY    75  73  93 S7        29.92F
NEW YORK CITY  CLOUDY    76  73  91 S8        29.89F
CENTRAL PARK   CLOUDY    76  69  79 VRB5      29.92F
$$

NYZ005>009-017-018-044>046-055-056-181000-
CENTRAL


CITY           SKY/WX    TMP DP  RH WIND       PRES   REMARKS
FULTON         CLOUDY    74  71  91 S8        29.73S
SYRACUSE       CLOUDY    74  70  87 VRB7G18   29.74R
ROME           CLOUDY    68  66  93 E6        29.77F
ELMIRA         CLOUDY    77  72  84 SW7       29.78S
BINGHAMTON     CLOUDY    70  69  97 S8        29.84S FOG
MONTICELLO     RAIN      69  68  96 S6        29.92F FOG
$$

NYZ026>034-041>043-087-181000-
NORTH


CITY           SKY/WX    TMP DP  RH WIND       PRES   REMARKS
WATERTOWN      CLOUDY    72  70  93 S9        29.70S
FORT DRUM      NOT AVBL
OGDENSBURG     RAIN      66  65  95 CALM      29.71F
MASSENA        LGT RAIN  64  63  96 E8        29.76F
SARANAC LAKE   RAIN      61  60  97 N3        29.82F FOG
PLATTSBURGH    CLOUDY    68  59  73 SE9       29.82F
$$

NYZ001>004-010>016-019>021-085-181000-
WEST


CITY           SKY/WX    TMP DP  RH WIND       PRES   REMARKS
NIAGARA FALLS  CLOUDY    77  71  82 SW12      29.71F
BUFFALO        PTCLDY    75  71  87 SW16G26   29.73S
DUNKIRK        CLEAR     73  70  90 SW10      29.76S
JAMESTOWN      MOCLDY    70  68  93 SW7       29.83S
WELLSVILLE     CLOUDY    73  69  87 SW10      29.86S
ROCHESTER      PTCLDY    73  71  93 SW6       29.73S
PENN YAN       PTCLDY    73  69  87 S6        29.77F
$$

             KEY
       WCI = WIND CHILL INDEX
       VSB = VISIBILITY
       HX  = HEAT INDEX
$$




USA.gov is the U.S. government's official web portal to all federal, state and local government web resources and services.